Location: Earls Croome
(52.0667°N, 2.2000°W)
Time: 07:42:39
(UTC+00:00)

NOSS 3-3 (A) - Pass Details

Date: 17 November 2019
Orbit: 848 x 1364 km, 63.4° (Epoch: 30 November)

Event Time Altitude Azimuth Distance (km) Brightness Sun altitude
Exits shadow 06:39:18 - 254° (WSW) 3,320 6.3 -8.1°
Reaches altitude 10° 06:41:11 10° 259° (W) 2,665 5.8 -7.8°
Maximum altitude 06:47:11 47° 333° (NNW) 1,336 4.5 -7.0°
Drops below altitude 10° 06:54:00 10° 46° (NE) 3,016 6.9 -6.0°
Sets 06:57:02 0° 53° (NE) 4,061 7.7 -5.6°
